AO-07 1 07530U 74089B 15120.52806388 -.00000027 00000-0 10619-3 0 9992 2 07530 101.5165 097.4318 0012314 037.7341 075.5180 12.53613971851282 FO-29 1 24278U 96046B 15119.86521420 .00000021 00000-0 57509-4 0 9996 2 24278 098.5358 095.2060 0350177 195.9466 228.5479 13.53050319923492 SO-33 1 25509U 98061B 15119.49301061 .00000504 00000-0 87937-4 0 9993 2 25509 031.4310 167.6272 0347963 006.4374 354.0570 14.29983422862444 RS-22 1 27939U 03042A 15120.50563512 .00000891 00000-0 17076-3 0 9997 2 27939 097.8355 284.5352 0012855 175.2531 184.8789 14.65986036619204 HO-68 1 36122U 09072B 15120.81573917 -.00000060 00000-0 -43517-4 0 9994 2 36122 100.1998 167.3015 0007271 225.6480 134.4022 13.16326301258222 AO-73 1 39444U 13066AE 15119.75893208 .00001681 00000-0 22259-3 0 9998 2 39444 097.7345 184.2880 0058615 294.0854 065.4234 14.80052836 76250 EO-79 1 40025U 14033R 15120.77864270 .00002832 00000-0 32220-3 0 9999 2 40025 097.9561 020.9689 0012911 346.7240 013.3607 14.86978376 46755 UO-11 1 14781U 84021B 15119.77090582 .00000783 00000-0 10441-3 0 9992 2 14781 097.8063 178.0345 0007633 221.5105 138.5529 14.82330468674851 AO-16 1 20439U 90005D 15120.08685396 .00000146 00000-0 69905-4 0 9990 2 20439 098.5380 056.9952 0009889 307.2126 119.2321 14.32530657319855 LO-19 1 20442U 90005G 15119.38770984 .00000129 00000-0 63245-4 0 9995 2 20442 098.5090 056.0109 0010718 295.9590 064.0489 14.32723834319957 AO-27 1 22825U 93061C 15119.91794182 .00000119 00000-0 63561-4 0 9992 2 22825 098.7044 070.0259 0009597 089.9817 311.2949 14.29869737126046 IO-26 1 22826U 93061D 15120.39697968 .00000120 00000-0 63572-4 0 9995 2 22826 098.6988 070.6781 0010140 081.6256 278.6075 14.30185541126256 GO-32 1 25397U 98043D 15120.09861291 .00000060 00000-0 45197-4 0 9991 2 25397 098.5156 072.0596 0002439 097.8033 323.0025 14.23539230872957 NO-44 1 26931U 01043C 15119.48317427 .00000142 00000-0 86508-4 0 9990 2 26931 067.0510 302.7247 0005998 264.5707 095.4710 14.30300190708832 SO-50 1 27607U 02058C 15120.56759642 .00000450 00000-0 63761-4 0 9996 2 27607 064.5576 344.1989 0079054 297.5638 061.7947 14.74673845664267 CO-55 1 27844U 03031E 15119.51459097 .00000304 00000-0 15810-3 0 9994 2 27844 098.6962 128.7350 0010951 082.8214 070.5278 14.21777832613522 CO-57 1 27848U 03031J 15120.50737919 .00000238 00000-0 12873-3 0 9993 2 27848 098.7059 129.5961 0010863 086.9609 064.7003 14.21428506613573 AO-51 1 28375U 04025K 15120.07412601 .00000208 00000-0 74097-4 0 9997 2 28375 098.2893 061.9102 0083945 114.5323 246.4647 14.41639573569560 CP3 1 31129U 07012N 15120.15702726 .00001118 00000-0 24959-3 0 9998 2 31129 097.9762 088.0180 0098256 103.2372 320.8038 14.55706826426135 CO-65 1 32785U 08021C 15120.19848288 .00001534 00000-0 17817-3 0 9993 2 32785 097.6540 165.5207 0012539 219.6934 216.3961 14.86721650379106 PRISM 1 33493U 09002B 15120.78168926 .00005986 00000-0 58091-3 0 9993 2 33493 098.2539 315.8835 0017354 123.2497 237.0316 14.92939861339505 SOHLA-1 1 33496U 09002E 15120.42885674 .00000456 00000-0 82043-4 0 9995 2 33496 098.2045 247.9260 0005441 324.9659 075.4822 14.71318472336151 TISAT-1 1 36799U 10035E 15120.49348161 .00002580 00000-0 28517-3 0 9999 2 36799 098.0132 220.3305 0012897 009.7813 121.4208 14.88248367259868 STUDSAT 1 36801U 10035G 15120.33187164 .00018554 00000-0 11352-2 0 9996 2 36801 098.0565 237.1979 0005227 295.7201 124.6843 15.10274031260744 ALMASAT-1 1 38078U 12006B 15120.88981348 .00036018 35365-5 60669-3 0 9998 2 38078 069.4600 359.4882 0491439 322.5721 034.2089 14.76443986168052 CUBEBUG-1 1 39153U 13018D 15120.46166268 .00001427 00000-0 19939-3 0 9990 2 39153 098.0175 204.9655 0018307 050.9657 309.3180 14.79097795108422 ESTCUBE-1 1 39161U 13021C 15120.79404952 .00001807 00000-0 30198-3 0 9996 2 39161 098.0712 204.1383 0010956 103.2040 257.0343 14.71066534106278 DUCHIFAT-1 1 40021U 14033M 15120.42754977 .00004087 00000-0 45321-3 0 9999 2 40021 097.9578 020.8779 0013673 348.3378 011.7462 14.87774178 46705 NANOSATCBR1 1 40024U 14033Q 15120.47207112 .00003324 00000-0 37336-3 0 9991 2 40024 097.9546 020.7524 0012729 348.3780 011.7125 14.87390373 46705 DTUSAT-2 1 40030U 14033W 15120.65723257 .00002828 00000-0 32484-3 0 9998 2 40030 097.9542 020.6238 0011760 340.7090 019.3639 14.86595407 46723 ANTELSAT 1 40034U 14033AA 15120.75196083 .00001958 00000-0 30757-3 0 9998 2 40034 097.9481 013.8310 0058902 272.1614 087.2825 14.72590656 46315 MET-2/21 1 22782U 93055A 15119.85927317 .00000063 00000-0 43414-4 0 9991 2 22782 082.5470 282.0166 0023629 096.6545 010.6767 13.83767362 93916 OKEAN-4 1 23317U 94066A 15119.84481578 .00001158 00000-0 12740-3 0 9995 2 23317 082.5357 130.8373 0021585 127.1924 002.5246 14.86566960110136 NOAA-14 1 23455U 94089A 15120.51628620 .00000030 00000-0 38529-4 0 9992 2 23455 098.7527 202.9465 0008933 210.3373 266.1983 14.14036941 48795 NOAA-15 1 25338U 98030A 15120.50133940 .00000181 00000-0 95272-4 0 9994 2 25338 098.7718 119.1083 0009683 311.6024 048.4325 14.25608869882046 RESURS 1 25394U 98043A 15120.52656267 .00000003 00000-0 19441-4 0 9991 2 25394 098.4607 077.3399 0002482 069.8526 043.6811 14.24455417873490 FENGYUN1 1 25730U 99025A 15120.47892156 .00001508 00000-0 82731-3 0 9991 2 25730 098.9418 085.3642 0017841 288.7020 219.1578 14.13264664822310 OKEAN-0 1 25860U 99039A 15119.84683780 .00000736 00000-0 11447-3 0 9998 2 25860 098.0896 087.8300 0001928 098.3153 316.8044 14.75984579848856 NOAA-16 1 26536U 00055A 15120.44246083 .00000028 00000-0 38994-4 0 9999 2 26536 098.9459 186.4567 0010631 013.8541 346.2921 14.13090863752914 NOAA-17 1 27453U 02032A 15120.46889019 .00000078 00000-0 50866-4 0 9996 2 27453 098.3375 108.8348 0011023 328.7972 031.2552 14.24876504667867 NOAA-18 1 28654U 05018A 15120.45078669 .00000138 00000-0 10028-3 0 9999 2 28654 099.1821 111.9351 0015379 094.2653 266.0275 14.12186249512332 NOAA-19 1 33591U 09005A 15120.47475619 .00000166 00000-0 11521-3 0 9993 2 33591 098.9860 070.2496 0013223 308.0264 051.9713 14.11922134320756 HUBBLE 1 20580U 90037B 15120.17646883 .00002015 00000-0 11881-3 0 9996 2 20580 028.4693 110.6884 0003170 083.6773 018.1188 15.07277611172556 ISS 1 25544U 98067A 15120.74341693 .00014059 00000-0 20276-3 0 9995 2 25544 051.6473 321.0058 0005242 285.2402 175.4942 15.56267061940658 CO-58 1 28895U 05043F 15120.51424301 .00000857 00000-0 17648-3 0 9992 2 28895 097.8223 310.7790 0018534 088.2093 272.1232 14.62710523506622 FALCON 1 30776U 07006E 15119.97944473 .00011102 00000-0 45639-3 0 9995 2 30776 035.4269 303.1453 0001673 250.5869 242.9015 15.23441585448945 MAST 1 31126U 07012K 15119.82546654 .00000853 00000-0 19302-3 0 9994 2 31126 097.9562 090.0688 0092541 086.7559 335.0402 14.55980342426454 CAPE1 1 31130U 07012P 15119.85296738 .00001044 00000-0 23503-3 0 9998 2 31130 097.9778 087.2131 0098899 105.9761 255.2359 14.55389992425851 COMPASS 1 32787U 08021E 15120.41216521 .00003195 00000-0 33282-3 0 9998 2 32787 097.6563 169.5463 0012746 204.9969 155.0633 14.90440753379399 AAUSAT2 1 32788U 08021F 15119.43274957 .00003623 00000-0 36735-3 0 9998 2 32788 097.6576 170.0282 0012105 204.8101 155.2537 14.91446819379335 DO-64 1 32789U 08021G 15120.14166212 .00006806 00000-0 56273-3 0 9998 2 32789 097.6805 180.9143 0010696 176.3843 236.0365 14.99201809379889 CO-66 1 32791U 08021J 15120.09956186 .00001996 00000-0 21996-3 0 9991 2 32791 097.6558 167.2325 0013217 212.9382 147.1013 14.88557776379162 RS-30 1 32953U 08025A 15120.66863074 .00000010 00000-0 -13620-7 0 9997 2 32953 082.5072 003.7986 0018308 181.1811 178.9226 12.43059157314709 METEOR-M 1 35865U 09049A 15120.71402274 .00000154 00000-0 88881-4 0 9992 2 35865 098.5047 162.7462 0001552 258.6844 101.4155 14.22018184291460 RS-38 1 35869U 09049E 15120.68577061 .00000085 00000-0 57129-4 0 9993 2 35869 098.4968 162.3728 0003774 254.1610 105.9130 14.22289515291501 JUGNU 1 37839U 11058B 15120.17787516 .00000436 00000-0 90475-4 0 9998 2 37839 019.9602 133.5589 0018780 236.9641 189.7107 14.12456046183422 SRMSAT 1 37841U 11058D 15120.19027403 .00000392 00000-0 70607-4 0 9991 2 37841 019.9705 159.2096 0011811 163.9421 243.0253 14.10470235183161 RAX-2 1 37853U 11061D 15120.19632416 .00007506 00000-0 46499-3 0 9999 2 37853 101.7143 307.6679 0198839 216.0067 253.5207 14.95350946189933 AUBIESAT 1 37854U 11061E 15120.49440086 .00009372 00000-0 55536-3 0 9998 2 37854 101.7238 311.3474 0193377 209.9111 204.8041 14.97429492190085 HRBE 1 37855U 11061F 15120.45753236 .00008238 00000-0 49680-3 0 9992 2 37855 101.7179 310.0233 0198152 212.6470 146.2361 14.96282473190016 HORYU-2 1 38340U 12025D 15119.85849586 .00001707 00000-0 26673-3 0 9990 2 38340 098.3082 088.5599 0010527 247.8818 112.1272 14.74148055158411 RS-40 1 38735U 12041C 15120.68675853 .00000040 00000-0 21992-3 0 9991 2 38735 082.4731 089.5947 0015614 286.6456 073.2912 12.42567492125014 PROITERES 1 38756U 12047B 15120.73843393 .00001352 00000-0 20510-3 0 9994 2 38756 098.2171 219.2273 0013502 089.7134 270.5613 14.75751323142007 BEESAT-3 1 39134U 13015E 15120.65618323 .00009699 00000-0 56154-3 0 9990 2 39134 064.8750 209.5228 0032636 256.3851 103.4141 15.11530726111514 BEESAT-2 1 39136U 13015G 15120.66186456 .00004135 00000-0 24952-3 0 9991 2 39136 064.8738 211.5289 0033541 257.7502 102.0365 15.10011078111488 ZACUBE-1 1 39417U 13066B 15120.18380540 .00001289 00000-0 17422-3 0 9997 2 39417 097.7340 184.4956 0059213 293.3920 066.1071 14.79559090 77533 TRITON-1 1 39427U 13066M 15119.76873333 .00000881 00000-0 15250-3 0 9991 2 39427 097.7200 173.3579 0114983 322.3021 037.0166 14.66535592 76761 DELFIN3XT 1 39428U 13066N 15119.45752407 .00001789 00000-0 30561-3 0 9996 2 39428 097.7201 171.4623 0123644 327.8593 031.5115 14.65197135 76602 GOMX-1 1 39430U 13066Q 15120.78909596 .00001605 00000-0 30623-3 0 9996 2 39430 097.7138 167.3118 0153917 339.6650 019.8446 14.57960532 76479 MO-76 1 39436U 13066W 15120.14975136 .00022428 00000-0 15925-2 0 9998 2 39436 097.7487 196.0897 0022706 262.7149 097.1496 15.04520645 78268 LO-74 1 39440U 13066AA 15119.74813915 .00001192 00000-0 17809-3 0 9992 2 39440 097.7289 179.8211 0080964 304.9211 054.4409 14.74390807 77193 PUCPSAT-1 1 39442U 13066AC 15119.48281001 .00002643 00000-0 28893-3 0 9997 2 39442 097.7425 190.6196 0031771 284.2469 075.5219 14.88338537 76624 SPROUT 1 39770U 14029E 15120.36922006 .00001652 00000-0 20620-3 0 9996 2 39770 097.8683 217.8497 0009875 005.9689 354.1678 14.83701608 50549 POPSAT-HIP1 1 40028U 14033U 15120.81245454 .00002571 00000-0 29408-3 0 9998 2 40028 097.9592 021.0680 0014347 344.0247 016.0455 14.86832614 46742 EO-80 1 40032U 14033Y 15120.66377002 .00002415 00000-0 27877-3 0 9996 2 40032 097.9560 020.6449 0011947 341.5211 018.5496 14.86535085 46728 VELOX-1 1 40057U 14034E 15120.87527313 .00002990 00000-0 44506-3 0 9995 2 40057 098.2176 198.2033 0012086 035.2902 324.9075 14.75653720 44902 DAURIA DX 1 1 40071U 14037C 15120.81314771 .00001381 00000-0 18866-3 0 9993 2 40071 098.3604 190.2725 0009445 038.6583 321.5292 14.80306222 43789 UKUBE-1 1 40074U 14037F 15120.77047380 .00002895 00000-0 37202-3 0 9996 2 40074 098.3611 190.8622 0005714 048.3575 311.8090 14.82006135 43810 HODOYOSHI-1 1 40299U 14070B 15120.79994216 .00004805 00000-0 23278-3 0 9994 2 40299 097.4574 202.9150 0011861 302.5234 205.8789 15.18957749 26628 CHUBUSAT-1 1 40300U 14070C 15120.82179791 .00005490 00000-0 27809-3 0 9999 2 40300 097.4541 202.3637 0021147 301.4099 169.8383 15.17200382 26592 QSAT-EOS 1 40301U 14070D 15120.78024454 .00009356 00000-0 48116-3 0 9999 2 40301 097.4501 201.7593 0031398 300.7961 212.2100 15.16233216 26559 TSUBAME 1 40302U 14070E 15120.78467039 .00004957 00000-0 28256-3 0 9995 2 40302 097.4477 200.9430 0042516 303.0898 208.6626 15.12475637 26500 FIREBIRD FU3 1 40377U 15003B 15120.70909302 .00014956 00000-0 75141-3 0 9995 2 40377 099.1233 145.4151 0161566 049.3375 312.1751 15.06647048 13406 FIREBIRD FU4 1 40378U 15003C 15120.84039604 .00015036 00000-0 75444-3 0 9996 2 40378 099.1207 145.5713 0161689 048.7173 312.7757 15.06672145 13428 GRIFEX 1 40379U 15003D 15120.79128319 .00012520 00000-0 63767-3 0 9993 2 40379 099.1265 145.4822 0162336 050.1765 311.3538 15.06158144 13416 LAMBDA-SAT 1 40458U 98067GB 15120.59817252 .00503963 00000-0 21317-2 0 9991 2 40458 051.6411 317.1336 0014814 267.9928 132.5693 15.83355712 18655 /EX